Regional Weather Roundup
Issued by NWS Wakefield, VA

Home | Current Version | Previous Version | Graphics & Text | Print | Product List | Glossary On
Versions: 1 2 3 4 5 6 7 8 9 10 11 12 13 14 15 16 17 18 19 20 21 22 23 24 25 26 27 28 29 30 31 32 33 34 35 36 37 38 39 40 41 42 43 44 45 46 47 48 49 50
990
ASUS41 KAKQ 210215
RWRAKQ

REGIONAL WEATHER ROUNDUP
NATIONAL WEATHER SERVICE WAKEFIELD VA
900 PM EST FRI JAN 20 2017

Note: "fair" indicates few or no clouds below 12,000 feet with no
significant weather and/or obstructions to visibility. * = Denotes
station may not report precipitation (e.g., rain,snow,etc.),
thunder or fog.

VAZ042-051-052>054-056-210300-
NORTHERN VIRGINIA

CITY           SKY/WX    TMP DP  RH WIND       PRES   REMARKS
WASH NATIONAL  CLOUDY    48  46  93 S7        29.92S
DULLES         CLOUDY    47  44  90 S6        29.90R FOG
FORT BELVOIR   CLOUDY    46  45  93 CALM      29.91S
QUANTICO       FOG       45  45 100 S5        29.93S VSB 3/4
FREDERICKSBRG* CLOUDY    48  48 100 CALM      29.91F FOG
STAFFORD*      CLOUDY    47  47 100 CALM      29.95F FOG
WARRENTON      CLOUDY    49  46  87 SE3       29.89F FOG
CULPEPER*      CLOUDY    49  48  95 CALM      29.91F
MANASSAS*      NOT AVBL
LEESBURG*      CLOUDY    48  48 100 S6        29.90S FOG
WINCHESTER     PTCLDY    39  37  93 CALM      29.88R FOG
FRONT ROYAL*   FAIR      43  41  93 CALM      29.87S
LURAY*         FAIR      43  43 100 CALM      29.87R FOG
$$

VAZ048-049-060>072-079>083-210300-
CENTRAL AND SOUTH CENTRAL VIRGINIA

CITY           SKY/WX    TMP DP  RH WIND       PRES   REMARKS
RICHMOND       DRZL/FOG  48  48 100 SE3       29.92S VSB 1/2
CHESTERFIELD*  CLOUDY    48  34  57 CALM      29.93S VSB 3/4
PETERSBURG*    CLOUDY    48  46  93 CALM      29.93S FOG
HANOVER        CLOUDY    48  46  93 CALM      29.93S FOG
TAPPAHANNOCK*  CLOUDY    48  48 100 SE3       29.93S FOG
QUINTON*       CLOUDY    47  47 100 CALM      29.92S FOG
CHARLOTTSVILLE CLOUDY    51  47  86 S3        29.89R
GORDONSVILLE*  CLOUDY    49  48  98 S7        29.90S
ORANGE*          N/A     50  50 100 CALM      29.92S
LOUISA*        CLOUDY    52  52 100 CALM      29.90R FOG
BUMPASS*       CLOUDY    47  47 100 S6        29.91R
FARMVILLE*     CLOUDY    51  51 100 SW3       29.90F FOG
CREWE*         CLOUDY    49  49 100 CALM      29.91S VSB 1/2
FORT PICKETT*  CLOUDY    48  45  87 CALM      29.92S VSB 1/2
CHASE CITY*    CLOUDY    49  47  94 CALM      29.91R
CLARKSVILLE*   CLOUDY    48  48 100 CALM      29.91S VSB 1
SOUTH HILL*    CLOUDY    48  48 100 CALM      29.97R
LAWRENCEVILLE* CLOUDY    48  47  97 CALM      29.91S
EMPORIA*       CLOUDY    46  46 100 CALM      29.93S FOG
$$

VAZ088>098-210300-
SOUTHEAST VIRGINIA

CITY           SKY/WX    TMP DP  RH WIND       PRES   REMARKS
NORFOLK        CLOUDY    47  46  97 CALM      29.92R FOG
VIRGINIA BEACH CLOUDY    47  45  93 CALM      29.91R FOG
NORFOLK NAVAL  CLOUDY    48  45  89 N6        29.94R FOG
WEST POINT*    CLOUDY    46  46  98 CALM      29.94F
SALUDA*        CLOUDY    46  46 100 CALM      29.93S
NEWPORT NEWS   CLOUDY    47  45  93 CALM      29.93R FOG
LANGLEY AFB    CLOUDY    47  47  99 CALM      29.92R
FORT EUSTIS    CLOUDY    47  44  92 CALM      29.90S
WILLIAMSBURG*  CLOUDY    48  48 100 CALM      29.94S
HR EXEC AP*    CLOUDY    45  43  93 CALM      29.92R VSB 3/4
FRANKLIN*      CLOUDY    48  47  96 CALM      29.93S
US460-WAKEFLD  CLOUDY    48  48 100 CALM      29.93R FOG
$$

VAZ020-022-025-037-045-210300-
WEST CENTRAL AND SOUTHWEST VIRGINIA

CITY           SKY/WX    TMP DP  RH WIND       PRES   REMARKS
STAUNTON*      PTCLDY    43  43  99 CALM      29.90R FOG
WAYNESBORO*    FAIR      43  42  96 CALM      29.88S
HOT SPRINGS VA CLOUDY    48  46  93 SW9       29.88S
LYNCHBURG      FOG       47  47 100 SW5       29.92R VSB 1
DANVILLE       CLOUDY    50  50 100 CALM      29.91S FOG
SOUTH BOSTON*  CLOUDY    50  48  95 CALM      29.92R VSB 1/2
MARTINSVILLE   CLOUDY    49  48  96 CALM      29.93S FOG
ROANOKE        CLOUDY    49  48  97 CALM      29.92R FOG
BLACKSBURG     FOG       46  46 100 E5        29.92S VSB<1/4
DUBLIN*        FOG       47  47  99 CALM      29.91R VSB 3/4
MARION*          N/A     47  46  96 CALM      29.91S FOG
HILLSVILLE*    CLEAR     50  48  95 CALM      29.89S
RICHLANDS*     FAIR     N/A N/A N/A S3        29.88R
WISE*          PTCLDY    55  45  67 SW8       29.88R
ABINGDON*      CLEAR     52  50  93 CALM      29.88R
$$

MDZ021>025-VAZ099-100-210300-
SOUTHERN MARYLAND AND THE DELMARVA PENINSULA

CITY           SKY/WX    TMP DP  RH WIND       PRES   REMARKS
PATUXENT RIVER CLOUDY    45  44  97 CALM      29.92F FOG
BAY BRIDGE APT CLOUDY    43  43 100 CALM      29.92R FOG
LEONARDTOWN    CLOUDY    45  43  93 CALM      29.93S
DOVER          MOCLDY    41  41 100 SE5       29.91S FOG
GEORGETOWN     FOG       41  40  96 CALM      29.93R VSB 1/4
EASTON         MOCLDY    46  45  93 S3        29.95R FOG
CAMBRIDGE      MOCLDY    43  43 100 S3        29.92S
SALISBURY      CLOUDY    46  45  96 CALM      29.92R FOG
OCEAN CITY     CLOUDY    46  46 100 CALM      29.92R FOG
WALLOPS ISLAND CLOUDY    46  46 100 CALM      29.93R FOG
ACCOMACK*      CLOUDY    47  46  97 CALM      29.92S FOG
$$

NCZ012>017-030>032-210300-
NORTH CENTRAL AND EASTERN NORTH CAROLINA

CITY           SKY/WX    TMP DP  RH WIND       PRES   REMARKS
ROANOKE RAPIDS CLOUDY    48  48 100 CALM      29.92R FOG
RALEIGH        FOG       50  49  96 CALM      29.92R VSB 1/2
ELIZABETH CITY CLOUDY    48  47  96 CALM      29.91S
AHOSKIE*         N/A     48  48  99 CALM      29.92S FOG
EDENTON*       CLOUDY    51  49  93 CALM      29.91F FOG
CURRITUCK*     CLOUDY    48  48 100 CALM      29.92S FOG
KILL DEVIL HLS NOT AVBL
MANTEO         CLOUDY    49  49 100 N8        29.91R
CAPE HATTERAS  CLOUDY    52  49  89 N6        29.88R FOG
TARBORO*       NOT AVBL
GOLDSBORO      CLEAR     52  52 100 CALM      29.89R
WASHINGTON     MOCLDY    47  46  96 N3          N/A
GREENVILLE     CLOUDY    52  52 100 NE3       29.94R FOG
NEW BERN       MOCLDY    54  53  97 N5        29.90R
WILMINGTON     CLEAR     59  59 100 CALM      29.89R
$$

VAZ048-210300-
ELSEWHERE

CITY           SKY/WX    TMP DP  RH WIND       PRES   REMARKS
HARRISBURG PA  CLOUDY    39  39 100 CALM      29.89F FOG
BALTIMORE      CLOUDY    45  44  97 CALM      29.90S FOG
ANNAPOLIS      CLOUDY    46  43  89 S3        29.92R
ANDREWS AFB    CLOUDY    45  44  97 S3        29.90R FOG
PHILADELPHIA   CLOUDY    42  40  92 CALM      29.93R
HENDERSON NC   FOG       48  47  99 CALM      29.91S VSB 3/4
GREENSBORO     CLOUDY    53  53 100 CALM      29.90R FOG
ROCKY MOUNT    CLOUDY    51  51 100 N6        29.91R FOG
$$

VAZ100-210300-
MARINE

STATION/POSITION TIME  TEMP    WIND        PRES    WAVE   SWELL
                       AIR SEA DIR/SP/G            HT/PER HT/PER
                 (UTC) (F)     (DEG/KT/KT) (MB)    (FT/S) (FT/S)
CAPE MAY NJ      0136   43 41  100/  4/  5 1012.7F
LEWES DE         0148   43 42  260/  2/  2 1013.2R
OCEAN-CITY-INLET 0142   45 43   CALM  /  1 1013.5R
WACHAPREAGUE VA  0148   46 48   CALM  /  2 1013.3R
THOMAS POINT MD  0100   42 39  190/  6/  6   N/A
GOOSES REEF MD   0150   42     200/  4/  6 1014.0R
COVE POINT MD    0136   44     190/ 11/ 12 1013.7F
SOLOMONS ISLAND  0136   44 41  150/  5/  6   N/A
BISHOPS HEAD MD  0136   44 44  250/  1/  2 1013.8R
PINEY POINT MD   0124          140/  6/  6   N/A
POTOMAC MD       0150   43     150/  4/  4 1012.6R
CAMBRIDGE MD     0136   46 40  160/  3/  4 1012.6R
LEWISETTA VA     0148   46 44  190/  3/  3 1013.2R
RAPPAHANNOCK LGT 0124             CALM     1013.7
STINGRAY PT      0150   44     250/  2/  4 1014.0R
YORK RVR RNG VA  0148   45     310/  3/  4 1012.9R
YORKTOWN VA      0148   45 44  330/  2/  2 1013.2R
JAMESTOWN VA     0150   46     110/  2/  2   N/A
DOMINION TERM VA 0142   46     360/  2/  3 1013.5R
KIPTOPEKE VA     0142      44   50/  2/  3   N/A
CHES BAY BRIDGE  0148   45 43  320/  3/  3 1013.1R
CAPE HENRY VA    0148   46     340/  3/  4   N/A
WILLOUBY STN VA  0136   45     330/  2/  3 1014.1R
S CRANEY ISL VA  0136   46     340/  1/  2 1012.9R
CAPE HENRY BUOY  0142      48                N/A     3/12   2/12
OFFSHORE WE BUOY 0151      49                N/A     4/12   2/12
64NM E OF VA BCH 0050   57 58   80/ 12/ 16 1011.0    4/11   3/11
DUCK PIER NC     0136   48 45  340/ 14/ 15 1012.1R
44100 DUCK FRF   0135      48                N/A     4/11   3/11
44056 DUCK FRF   0130      45                N/A     4/11   2/11
OREGON INLET NC  0136   51 48  320/  5/  7 1012.1R
HATTERAS NC      0148   51 55   10/  7/  8 1011.4R
DIAMOND SHLS NC  0050   67 76  290/ 12/ 16 1010.7    5/13   3/13
CAPE LOOKOUT NC  0100   60     320/  3/  4 1011.1R
$$




USA.gov is the U.S. government's official web portal to all federal, state and local government web resources and services.